Kingston, Jamaica

3:16 AM EST on February 25, 2017 (GMT -0500)
Norman Manley International

Weather History for MKJP - November, 2013

Change the Weather History Date:

Monday, November 18, 2013

  Actual Average Record
Temperature  
Mean Temperature 83 °F -  
Max Temperature 88 °F 84 °F 92 °F (2014)
Min Temperature 78 °F 75 °F 71 °F (2010)
Cooling Degree Days 18    
Growing Degree Days 33 (Base 50)    
Moisture  
Dew Point 75 °F    
Average Humidity 76    
Maximum Humidity 89    
Minimum Humidity 65    
Precipitation  
Precipitation 0.00 in - - ()
Sea Level Pressure  
Sea Level Pressure 29.82 in    
Wind  
Wind Speed 5 mph ()    
Max Wind Speed 12 mph    
Max Gust Speed -    
Visibility 7.8 miles    
Events Rain , Thunderstorm    
Averages and records for this station are not official NWS values.
T = Trace of Precipitation, MM = Missing Value Source: Averaged Metar Reports

Daily Weather History Graph

Daily Weather History Graph

Search for Another Location

Airport or City:

Trip Planner

Search our weather history database for the weather conditions in past years. The results will help you decide how hot, cold, wet, or windy it might be!

Date:

Astronomy

Nov. 18, 2013 Rise Set
Actual Time 6:14 AM EST 5:29 PM EST
Civil Twilight 5:51 AM EST 5:52 PM EST
Nautical Twilight 5:25 AM EST 6:19 PM EST
Astronomical Twilight 4:58 AM EST 6:45 PM EST
Moon 6:32 PM EST (11/18) 7:00 AM EST (11/18)
Length of Visible Light 12h 01m
Length of Day
11h 15m
Full, 99% of the Moon is Illuminated
Nov 18
Full
Nov 25
Last Quarter
Dec 2
New
Dec 9
First Quarter
Dec 17
Full

Hourly Weather History & Observations

Time (EST) Temp. Heat Index Dew Point Humidity Pressure Visibility Wind Dir Wind Speed Gust Speed Precip Events Conditions
12:00 AM 82.4 °F 89.5 °F 75.2 °F 79% 29.86 in 6.2 mi NNW 5.8 mph - N/A   Partly Cloudy
1:00 AM 81 °F - 76 °F 80% 29.85 in 14 mi NNE 4.6 mph - -   Haze
1:00 AM 80.6 °F 86.2 °F 75.2 °F 84% 29.83 in 6.2 mi NNE 4.6 mph - N/A   Partly Cloudy
2:00 AM 80.6 °F 86.2 °F 75.2 °F 84% 29.83 in 6.2 mi Variable 2.3 mph - N/A   Partly Cloudy
3:00 AM 80.6 °F 86.2 °F 75.2 °F 84% 29.83 in 6.2 mi North 8.1 mph - N/A   Scattered Clouds
4:00 AM 81 °F - 74 °F 75% 29.82 in 14 mi North 3.5 mph - -   Haze
4:00 AM 80.6 °F 86.2 °F 75.2 °F 84% 29.80 in 6.2 mi North 3.5 mph - N/A   Partly Cloudy
5:00 AM 80.6 °F 85.4 °F 73.4 °F 79% 29.80 in 6.2 mi Variable 2.3 mph - N/A Thunderstorm Partly Cloudy
6:00 AM 80.6 °F 85.4 °F 73.4 °F 79% 29.83 in 6.2 mi Variable 2.3 mph - N/A   Partly Cloudy
7:00 AM 79 °F - 76 °F 87% 29.86 in 15 mi ENE 3.5 mph - -   Haze
7:00 AM 78.8 °F - 75.2 °F 89% 29.86 in 6.2 mi ENE 3.5 mph - N/A   Partly Cloudy
8:00 AM 84.2 °F 94.1 °F 77.0 °F 79% 29.86 in 6.2 mi SE 3.5 mph - N/A   Partly Cloudy
9:00 AM 84.2 °F 92.3 °F 75.2 °F 74% 29.89 in 6.2 mi WSW 3.5 mph - N/A   Scattered Clouds
10:00 AM 86 °F - 76 °F 65% 29.87 in 14 mi West 5.8 mph - -   Haze
10:00 AM 86.0 °F 95.1 °F 75.2 °F 70% 29.86 in 6.2 mi West 5.8 mph - N/A   Partly Cloudy
11:00 AM 86.0 °F 95.1 °F 75.2 °F 70% 29.83 in 6.2 mi South 10.4 mph - N/A   Partly Cloudy
12:00 PM 86.0 °F 96.9 °F 77.0 °F 74% 29.83 in 6.2 mi SSW 10.4 mph - N/A   Partly Cloudy
1:00 PM 88 °F - 78 °F 65% 29.81 in 8 mi South 11.5 mph - -  
1:00 PM 87.8 °F 99.7 °F 77.0 °F 70% 29.80 in 6.2 mi South 11.5 mph - N/A   Partly Cloudy
2:00 PM 86.0 °F 96.9 °F 77.0 °F 74% 29.77 in 6.2 mi SSW 6.9 mph - N/A   Partly Cloudy
3:00 PM 86.0 °F 95.1 °F 75.2 °F 70% 29.74 in 6.2 mi SSW 8.1 mph - N/A   Mostly Cloudy
4:00 PM 83 °F - 74 °F 68% 29.77 in 11 mi SSE 5.8 mph - -   Haze
4:00 PM 84.2 °F 90.9 °F 73.4 °F 70% 29.74 in 6.2 mi SSE 5.8 mph - N/A   Mostly Cloudy
5:00 PM 84.2 °F 92.3 °F 75.2 °F 74% 29.74 in 6.2 mi South 3.5 mph - N/A Rain Light Rain Showers
6:00 PM 82.4 °F 89.5 °F 75.2 °F 79% 29.77 in 6.2 mi NNE 3.5 mph - N/A   Partly Cloudy
7:00 PM 82 °F - 75 °F 75% 29.80 in 12 mi NNW 4.6 mph - -   Haze
7:00 PM 82.4 °F 89.5 °F 75.2 °F 79% 29.77 in 6.2 mi NNW 4.6 mph - N/A   Partly Cloudy
8:00 PM - - - N/A% - - SSW 3.5 mph - N/A   Unknown
9:00 PM 82.4 °F 88.2 °F 73.4 °F 74% 29.80 in 6.2 mi SSE 4.6 mph - N/A   Partly Cloudy
10:00 PM 82 °F - 74 °F 70% 29.83 in 12 mi 2.3 mph - -   Haze
10:00 PM 82.4 °F 88.2 °F 73.4 °F 74% 29.83 in 6.2 mi Variable 2.3 mph - N/A   Partly Cloudy
11:00 PM 82.4 °F 88.2 °F 73.4 °F 74% 29.80 in 6.2 mi SW 4.6 mph - N/A   Partly Cloudy